Terminal Aerodrome Forecast
Issued by NWS Sioux Falls, SD

Home | Current Version | Previous Version | Text Only | Print | Product List | Glossary On
Versions: 1 2 3 4 5 6 7 8 9 10 11 12 13 14 15 16 17 18 19 20 21 22 23 24 25 26 27 28 29 30 31 32 33 34 35
000
FTUS43 KFSD 231100 RRA
TAFSUX
TAF
KSUX 231148Z 2312/2412 04004KT P6SM SCT250
     FM231700 06007KT P6SM SCT250
     FM240100 10007KT P6SM SCT250
     FM240700 13006KT P6SM SCT060 BKN110 PROB30 2409/2412 5SM -SHRA
      BKN040=

USA.gov is the U.S. government's official web portal to all federal, state and local government web resources and services.